Find Kosmos-983

NORAD ID: 10590 Int'l Des: 1978-005 Owner: GUKOSR Country: SU operational
LEOCIRCULAR

Live-Position

3D-Globus wird geladen...

Über Kosmos-983

Beschreibung wird geladen...

Nächste Überflüge

Passes for default location (London). Set your location on the main map for personalized predictions.

Höhenverlauf

Loading altitude history...

Zweizeiliger Elementsatz

1 10590U 78005H 26105.87647537 -.00000026 00000-0 -79760-4 0 9999
2 10590 74.0309 62.3757 0046138 115.3772 245.2061 12.41510638187252
Epoch: 15. Apr. 2026 • Age: 10 hours

Aktueller Status

Höhe 1526.5 km
Geschwindigkeit 7.09 km/s
Subsatellitenpunkt -11.74°S, 114.45°E
Startdatum 10. Jan. 1978
Alter 48.2 years
Typ other

Technische Details

Klassifizierung Payload
Masse 60.00 kg
Trockenmasse 60.00 kg
Gesamtmasse 60.00 kg
Länge 0.80 m
Durchmesser 0.80 m
Spannweite 0.80 m
Form Poly
Hersteller NPOPM
Bus-Typ Strela-1 11F625
Phasenstatus In Orbit
Besitzer/Staat GUKOSR/SU

Most Searched